sat.trackr.live / text

‹ back to catalog

TIANQI-35

NORAD 62367 · 2024-245C

PAYLOAD ACTIVE UNKNOWN

§ Identity

Operator
Country
PRC
Launch date
2024-12-19
Launch site
YSLA
Launch vehicle
Mass (kg)
RCS (m²)

External: N2YO · Heavens-Above · Gunter

§ Orbital elements

Epoch: 2026-05-25T03:19:14.234880Z

Period
102.92 min
Inclination
44.9855°
Eccentricity
0.0010521
Mean motion
13.99183976 rev/d
Perigee alt
889.0 km
Apogee alt
904.3 km
Semi-major
7,274.8 km
B*
1.1559e-4
RAAN
64.2723°
Arg perigee
260.4254°
Mean anomaly
99.5390°
Rev number
7,311

§ Raw data

TIANQI-351 62367U 24245C   26145.13835920  .00000040  00000+0  11559-3 0  99972 62367  44.9855  64.2723 0010521 260.4254  99.5390 13.99183976 73110

JSON: /api/v1/satellites/62367 · /tle

For live sub-satellite position, see the globe view (requires WebGL).

§ Visibility from observer

Set your observer location to see the next 7 days of passes ≥ 10°. The values pass through the URL so the page stays shareable.

No JS? Fill the form by hand. The geolocation button needs JavaScript.